TimeEDT,TemperatureF,Dew PointF,Humidity,Sea Level PressureIn,VisibilityMPH,Wind Direction,Wind SpeedMPH,Gust SpeedMPH,PrecipitationIn,Events,Conditions,WindDirDegrees,DateUTC
12:00 AM,39.2,33.8,81,30.09,25.0,Calm,Calm,-,N/A,,Mostly Cloudy,0,2012-10-08 04:00:00
1:00 AM,39.2,35.6,87,30.12,25.0,Calm,Calm,-,N/A,,Scattered Clouds,0,2012-10-08 05:00:00
2:00 AM,37.4,35.6,93,30.12,25.0,Calm,Calm,-,N/A,,Mostly Cloudy,0,2012-10-08 06:00:00
3:00 AM,33.8,33.8,100,-9999,25.0,Calm,Calm,-,N/A,,Scattered Clouds,0,2012-10-08 07:00:00
4:00 AM,32.0,32.0,100,30.13,25.0,Calm,Calm,-,N/A,,Partly Cloudy,0,2012-10-08 08:00:00
5:00 AM,32.0,32.0,100,30.14,25.0,Calm,Calm,-,N/A,,Partly Cloudy,0,2012-10-08 09:00:00
6:00 AM,30.2,30.2,100,30.17,25.0,Calm,Calm,-,N/A,,Partly Cloudy,0,2012-10-08 10:00:00
7:00 AM,30.2,30.2,100,30.19,25.0,WNW,3.5,-,N/A,,Partly Cloudy,290,2012-10-08 11:00:00
8:00 AM,30.2,30.2,100,30.22,45.0,Calm,Calm,-,N/A,,Partly Cloudy,0,2012-10-08 12:00:00
9:00 AM,39.2,32.0,75,30.24,45.0,North,3.5,-,N/A,,Scattered Clouds,10,2012-10-08 13:00:00
10:00 AM,42.8,30.2,61,30.25,45.0,NNE,2.3,-,N/A,,Scattered Clouds,20,2012-10-08 14:00:00
11:00 AM,46.4,32.0,57,30.25,45.0,South,5.8,-,N/A,,Scattered Clouds,180,2012-10-08 15:00:00
12:00 PM,48.2,26.6,43,30.25,45.0,WSW,6.9,-,N/A,,Scattered Clouds,240,2012-10-08 16:00:00
1:00 PM,51.8,28.4,41,30.25,45.0,WSW,6.9,-,N/A,,Scattered Clouds,240,2012-10-08 17:00:00
2:00 PM,51.8,30.2,44,30.23,45.0,South,8.1,-,N/A,,Scattered Clouds,190,2012-10-08 18:00:00
3:00 PM,51.8,28.4,41,30.24,45.0,WSW,8.1,-,N/A,,Partly Cloudy,250,2012-10-08 19:00:00
4:00 PM,53.6,30.2,41,30.23,45.0,SSW,10.4,-,N/A,,Scattered Clouds,210,2012-10-08 20:00:00
5:00 PM,51.8,32.0,47,30.23,45.0,SSW,6.9,-,N/A,,Mostly Cloudy,210,2012-10-08 21:00:00
6:00 PM,48.2,33.8,58,30.25,45.0,South,4.6,-,N/A,,Mostly Cloudy,170,2012-10-08 22:00:00
7:00 PM,42.8,35.6,76,30.26,25.0,SSE,3.5,-,N/A,,Scattered Clouds,160,2012-10-08 23:00:00
8:00 PM,41.0,35.6,81,30.28,25.0,South,2.3,-,N/A,,Scattered Clouds,170,2012-10-09 00:00:00
9:00 PM,37.4,33.8,87,30.29,25.0,South,3.5,-,N/A,,Partly Cloudy,170,2012-10-09 01:00:00
10:00 PM,37.4,33.8,87,30.29,25.0,Calm,Calm,-,N/A,,Scattered Clouds,0,2012-10-09 02:00:00
11:00 PM,35.6,33.8,93,30.30,25.0,Calm,Calm,-,N/A,,Scattered Clouds,0,2012-10-09 03:00:00